Flag for Turkey Weather past 2 weeks in Gaziantep, Turkey

Now
72 °F

Broken clouds.


Feels Like: 77 °F
Forecast: 49 / 77 °F
Wind: 14 mph from Southwest

Location: Gaziantep Airport

Current Time: May 30, 2015 at 2:29:35 PM

Latest Report: May 30, 2015 at 1:50 PM


Visibility: N/A

Pressure: 29.92 "Hg

Humidity: 33%

Dew point: 41 °F

Location of GaziantepLocation

Historic Weather in Gaziantep — Graph

°F

Gaziantep temperature yesterday

Maximum temperature yesterday: 77 °F (at 2:20 PM)
Minimum temperature yesterday: 57 °F (at 11:20 PM)
Average temperature yesterday: 66 °F

Past Weeks' High & Low Weather Summary

 TemperatureHumidityPressure
High91 °F (May 20, 1:50 PM)94% (May 30, 5:20 AM)30.18 "Hg (May 30, 5:20 AM)
Low48 °F (May 30, 5:20 AM)13% (May 20, 4:20 PM)29.68 "Hg (May 28, 5:20 PM)
Average71 °F48%29.91 "Hg
* Reported May 15 1:20 PM — May 30 1:20 PM, Gaziantep, Weather by CustomWeather, © 2015

Note: Actual official high and low records may vary slightly from our data, if they occured in-between our weather recording intervals... More about our weather records

Advertising

Gaziantep weather history for previous 24 hours

 ConditionsComfort  
Time TempWeatherWind HumidityBarometerVisibility
1:20 PM
Sat, May 30
70 °FBroken clouds.13 mph38%29.92 "HgN/A
12:50 PM70 °FPartly sunny.14 mph38%29.92 "HgN/A
12:20 PM68 °FPartly sunny.9 mph43%29.92 "HgN/A
11:50 AM68 °FPartly sunny.9 mph40%29.92 "HgN/A
11:20 AM70 °FPartly sunny.13 mph43%29.92 "HgN/A
10:50 AM68 °FPartly sunny.10 mph46%29.92 "HgN/A
10:20 AM70 °FPartly sunny.7 mph43%29.89 "HgN/A
9:50 AM68 °FBroken clouds.2 mph53%29.92 "HgN/A
9:20 AM66 °FPartly sunny.3 mph60%29.89 "HgN/A
8:50 AM66 °FBroken clouds.2 mph56%29.89 "HgN/A
8:20 AM63 °FBroken clouds.8 mph68%29.89 "HgN/A
7:50 AM61 °FBroken clouds.7 mph77%29.89 "HgN/A
7:20 AM57 °FBroken clouds.No wind77%29.89 "HgN/A
6:50 AM54 °FBroken clouds.No wind82%29.89 "HgN/A
6:20 AM52 °FPartly sunny.No wind82%29.89 "HgN/A
5:50 AM50 °FPassing clouds.2 mph82%29.89 "HgN/A
5:20 AM48 °FPassing clouds.2 mph94%29.86 "HgN/A
4:50 AM50 °FClear.3 mph88%29.86 "Hg10 mi
4:20 AM52 °FClear.No wind88%29.86 "Hg10 mi
3:50 AM52 °FClear.2 mph88%29.83 "Hg10 mi
3:20 AM52 °FPassing clouds.5 mph88%29.83 "HgN/A
2:50 AM54 °FClear.6 mph82%29.83 "Hg10 mi
2:20 AM54 °FClear.2 mph77%29.83 "Hg10 mi
1:50 AM55 °FClear.No wind77%29.83 "Hg10 mi
1:20 AM54 °FClear.8 mph82%29.83 "Hg10 mi
12:50 AM55 °FClear.3 mph77%29.83 "Hg10 mi
12:20 AM55 °FClear.2 mph77%29.83 "Hg10 mi
11:50 PM
Fri, May 29
59 °FClear.9 mph72%29.83 "Hg10 mi
11:20 PM57 °FClear.No wind77%29.83 "Hg10 mi
10:50 PM59 °FClear.1 mph77%29.83 "Hg10 mi
10:20 PM61 °FClear.2 mph72%29.83 "Hg10 mi
9:50 PM63 °FPassing clouds.9 mph68%29.83 "HgN/A
9:20 PM63 °FClear.9 mph64%29.83 "Hg10 mi
8:50 PM63 °FClear.13 mph64%29.80 "Hg10 mi
8:20 PM64 °FSunny.10 mph60%29.80 "Hg10 mi
7:50 PM64 °FSunny.10 mph60%29.80 "Hg10 mi
7:20 PM68 °FPassing clouds.10 mph53%29.80 "HgN/A
6:50 PM68 °FScattered clouds.15 mph49%29.77 "HgN/A
6:20 PM70 °FScattered clouds.14 mph46%29.77 "HgN/A
5:50 PM72 °FScattered clouds.16 mph41%29.77 "HgN/A
5:20 PM72 °FScattered clouds.17 mph41%29.77 "HgN/A
4:50 PM73 °FScattered clouds.17 mph36%29.77 "HgN/A
4:20 PM73 °FScattered clouds.17 mph33%29.77 "HgN/A
3:50 PM75 °FScattered clouds.16 mph31%29.77 "HgN/A
3:20 PM75 °FScattered clouds.17 mph34%29.77 "HgN/A
2:50 PM75 °FScattered clouds.17 mph34%29.74 "HgN/A
2:20 PM77 °FScattered clouds.17 mph32%29.74 "HgN/A
Weather by CustomWeather, © 2015

See weather overviewHow to use our weather pages